IJM612 EBBR-EDDS

Flight info

Callsign IJM612
Flight time 0h 40m
Altitude 23000
Route PITES M150 KRH T128 BADSO BADSO2A
Aircraft CL60/M-SBDE1E2E3FGHIJ1J4J5J7M3RWXYZ/LB1V1D1

Departure

Time 2026-05-07 19:33
Airport Brussels Airport (EBBR)

Arrival

Time 2026-05-07 20:14
Airport Stuttgart Airport (EDDS)
Time Latitude Longitude Altitude Speed Heading
2026-05-07 19:06 50.89727 4.47193 135 ft 0 kts 154°
2026-05-07 19:23 50.89725 4.47195 135 ft 2 kts 153°
2026-05-07 19:24 50.89709 4.47251 135 ft 9 kts 69°
2026-05-07 19:24 50.89743 4.47330 136 ft 7 kts
2026-05-07 19:24 50.89798 4.47293 134 ft 8 kts 336°
2026-05-07 19:24 50.89858 4.47271 134 ft 7 kts 48°
2026-05-07 19:25 50.89887 4.47360 134 ft 10 kts 66°
2026-05-07 19:25 50.89923 4.47487 134 ft 15 kts 65°
2026-05-07 19:25 50.89981 4.47602 133 ft 12 kts 359°
2026-05-07 19:25 50.90068 4.47546 131 ft 15 kts 336°
2026-05-07 19:26 50.90117 4.47510 130 ft 0 kts 335°
2026-05-07 19:26 50.90121 4.47508 130 ft 2 kts 335°
2026-05-07 19:26 50.90165 4.47476 130 ft 10 kts 336°
2026-05-07 19:27 50.90241 4.47440 129 ft 11 kts 21°
2026-05-07 19:27 50.90286 4.47555 129 ft 15 kts 67°
2026-05-07 19:27 50.90340 4.47745 128 ft 20 kts 66°
2026-05-07 19:27 50.90405 4.47968 128 ft 23 kts 66°
2026-05-07 19:28 50.90476 4.48212 128 ft 25 kts 66°
2026-05-07 19:28 50.90534 4.48414 128 ft 10 kts 66°
2026-05-07 19:28 50.90558 4.48464 128 ft 2 kts 26°
2026-05-07 19:28 50.90562 4.48467 128 ft 0 kts 18°
2026-05-07 19:29 50.90566 4.48469 128 ft 2 kts 14°
2026-05-07 19:30 50.90602 4.48449 127 ft 5 kts 308°
2026-05-07 19:30 50.90610 4.48430 126 ft 0 kts 302°
2026-05-07 19:32 50.90610 4.48429 126 ft 0 kts 302°
2026-05-07 19:32 50.90635 4.48364 125 ft 11 kts 301°
2026-05-07 19:33 50.90664 4.48244 124 ft 9 kts 257°
2026-05-07 19:33 50.90633 4.48130 125 ft 33 kts 245°
2026-05-07 19:33 50.90370 4.47216 128 ft 144 kts 246°
2026-05-07 19:33 50.89898 4.45617 938 ft 170 kts 245°
2026-05-07 19:34 50.89369 4.43878 1981 ft 189 kts 243°
2026-05-07 19:34 50.88448 4.42272 2857 ft 214 kts 205°
2026-05-07 19:34 50.87018 4.41985 3673 ft 219 kts 163°
2026-05-07 19:34 50.85680 4.43389 4352 ft 250 kts 131°
2026-05-07 19:35 50.84558 4.45579 4952 ft 264 kts 128°
2026-05-07 19:35 50.83419 4.47852 5572 ft 266 kts 128°
2026-05-07 19:35 50.82262 4.50146 6114 ft 268 kts 129°
2026-05-07 19:35 50.81094 4.52443 6505 ft 271 kts 129°
2026-05-07 19:36 50.79904 4.54764 6758 ft 270 kts 129°
2026-05-07 19:36 50.78701 4.57078 7010 ft 272 kts 130°
2026-05-07 19:36 50.77489 4.59353 7073 ft 272 kts 130°
2026-05-07 19:36 50.76285 4.61603 7462 ft 264 kts 130°
2026-05-07 19:37 50.75099 4.63817 8403 ft 268 kts 130°
2026-05-07 19:37 50.73880 4.66043 9517 ft 278 kts 131°
2026-05-07 19:37 50.72596 4.68361 10597 ft 295 kts 132°
2026-05-07 19:37 50.71181 4.70910 11480 ft 322 kts 132°
2026-05-07 19:38 50.69713 4.73724 12344 ft 346 kts 124°
2026-05-07 19:38 50.68749 4.77254 13228 ft 364 kts 107°
2026-05-07 19:38 50.68052 4.81178 14274 ft 374 kts 106°
2026-05-07 19:38 50.67348 4.85100 15499 ft 379 kts 107°
2026-05-07 19:39 50.66591 4.89069 16678 ft 384 kts 111°
2026-05-07 19:39 50.65284 4.92743 17763 ft 387 kts 129°
2026-05-07 19:39 50.63434 4.95797 18725 ft 394 kts 137°
2026-05-07 19:39 50.62115 4.97829 19349 ft 399 kts 136°
2026-05-07 19:40 50.59483 5.01902 20624 ft 406 kts 136°
2026-05-07 19:40 50.57471 5.05015 21483 ft 413 kts 137°
2026-05-07 19:40 50.55410 5.08243 22249 ft 419 kts 134°
2026-05-07 19:40 50.53653 5.11969 22821 ft 429 kts 124°
2026-05-07 19:41 50.52037 5.15899 23303 ft 433 kts 124°
2026-05-07 19:41 50.50391 5.19870 23582 ft 435 kts 124°
2026-05-07 19:41 50.48743 5.23835 23838 ft 433 kts 124°
2026-05-07 19:41 50.47108 5.27757 24091 ft 436 kts 124°
2026-05-07 19:42 50.45426 5.31781 24677 ft 444 kts 124°
2026-05-07 19:42 50.43726 5.35842 25551 ft 445 kts 124°
2026-05-07 19:42 50.42020 5.39905 26353 ft 446 kts 124°
2026-05-07 19:42 50.40314 5.43962 27034 ft 450 kts 124°
2026-05-07 19:43 50.38601 5.48025 27619 ft 454 kts 124°
2026-05-07 19:43 50.36832 5.52213 28189 ft 458 kts 124°
2026-05-07 19:43 50.35067 5.56385 28729 ft 462 kts 124°
2026-05-07 19:43 50.33284 5.60592 29225 ft 466 kts 124°
2026-05-07 19:44 50.31501 5.64788 29480 ft 473 kts 124°
2026-05-07 19:44 50.29659 5.69117 29734 ft 475 kts 125°
2026-05-07 19:44 50.27828 5.73412 29987 ft 473 kts 125°
2026-05-07 19:44 50.26006 5.77679 30233 ft 472 kts 125°
2026-05-07 19:45 50.24163 5.81987 30491 ft 474 kts 125°
2026-05-07 19:45 50.22332 5.86259 30743 ft 477 kts 125°
2026-05-07 19:45 50.20478 5.90578 30991 ft 480 kts 125°
2026-05-07 19:45 50.18616 5.94909 31056 ft 485 kts 125°
2026-05-07 19:46 50.14862 6.03615 31061 ft 485 kts 125°
2026-05-07 19:46 50.11113 6.12281 31060 ft 482 kts 125°
2026-05-07 19:47 50.07369 6.20906 31058 ft 481 kts 125°
2026-05-07 19:47 50.03626 6.29502 31059 ft 480 kts 125°
2026-05-07 19:48 49.99860 6.38120 31061 ft 481 kts 125°
2026-05-07 19:48 49.96079 6.46744 31061 ft 482 kts 125°
2026-05-07 19:49 49.92292 6.55355 31059 ft 482 kts 125°
2026-05-07 19:49 49.88511 6.63922 31056 ft 482 kts 125°
2026-05-07 19:50 49.84706 6.72515 31054 ft 482 kts 126°
2026-05-07 19:50 49.80887 6.81114 31058 ft 482 kts 126°
2026-05-07 19:51 49.77108 6.89594 31060 ft 482 kts 126°
2026-05-07 19:51 49.73298 6.98120 31061 ft 481 kts 126°
2026-05-07 19:52 49.69490 7.06610 31069 ft 481 kts 126°
2026-05-07 19:52 49.65669 7.15102 31073 ft 481 kts 126°
2026-05-07 19:53 49.61850 7.23564 31063 ft 482 kts 126°
2026-05-07 19:53 49.58028 7.32005 31064 ft 482 kts 126°
2026-05-07 19:54 49.54174 7.40489 31061 ft 482 kts 126°
2026-05-07 19:54 49.50319 7.48950 31051 ft 483 kts 125°
2026-05-07 19:55 49.46480 7.57347 31047 ft 482 kts 125°
2026-05-07 19:55 49.42631 7.65740 31055 ft 482 kts 126°
2026-05-07 19:56 49.38752 7.74174 31050 ft 482 kts 126°
2026-05-07 19:56 49.34876 7.82572 31049 ft 482 kts 126°
2026-05-07 19:57 49.31012 7.90918 31049 ft 482 kts 126°
2026-05-07 19:57 49.27121 7.99298 30659 ft 488 kts 126°
2026-05-07 19:58 49.25160 8.03510 30135 ft 482 kts 126°
2026-05-07 19:58 49.23250 8.07607 29632 ft 475 kts 126°
2026-05-07 19:58 49.21331 8.11718 29112 ft 470 kts 126°
2026-05-07 19:58 49.19444 8.15780 28495 ft 467 kts 124°
2026-05-07 19:59 49.17945 8.20051 27888 ft 462 kts 115°
2026-05-07 19:59 49.16636 8.24480 27266 ft 456 kts 114°
2026-05-07 19:59 49.15329 8.28865 26629 ft 452 kts 115°
2026-05-07 19:59 49.14028 8.33211 25933 ft 448 kts 115°
2026-05-07 20:00 49.12740 8.37503 25231 ft 442 kts 115°
2026-05-07 20:00 49.11476 8.41704 24530 ft 438 kts 115°
2026-05-07 20:00 49.10212 8.45899 23829 ft 433 kts 115°
2026-05-07 20:00 49.08953 8.50061 23125 ft 429 kts 115°
2026-05-07 20:01 49.07719 8.54139 22408 ft 425 kts 115°
2026-05-07 20:01 49.06480 8.58219 21658 ft 430 kts 115°
2026-05-07 20:01 49.05217 8.62368 20913 ft 437 kts 115°
2026-05-07 20:01 49.03957 8.66500 20176 ft 437 kts 116°
2026-05-07 20:02 49.02691 8.70647 19428 ft 432 kts 116°
2026-05-07 20:02 49.01430 8.74769 18677 ft 428 kts 116°
2026-05-07 20:02 49.00179 8.78848 17930 ft 424 kts 116°
2026-05-07 20:02 48.98949 8.82854 17184 ft 420 kts 116°
2026-05-07 20:03 48.97725 8.86830 16435 ft 414 kts 116°
2026-05-07 20:03 48.96509 8.90776 15715 ft 408 kts 116°
2026-05-07 20:03 48.95314 8.94646 14967 ft 403 kts 116°
2026-05-07 20:03 48.94130 8.98474 14221 ft 398 kts 116°
2026-05-07 20:04 48.92968 9.02223 13477 ft 393 kts 116°
2026-05-07 20:04 48.91810 9.05953 12728 ft 386 kts 116°
2026-05-07 20:04 48.90689 9.09560 11985 ft 378 kts 116°
2026-05-07 20:04 48.89574 9.13142 11240 ft 370 kts 116°
2026-05-07 20:05 48.88489 9.16624 10690 ft 358 kts 116°
2026-05-07 20:05 48.87447 9.19965 10194 ft 347 kts 116°
2026-05-07 20:05 48.86420 9.23248 9710 ft 338 kts 116°
2026-05-07 20:05 48.85429 9.26415 9210 ft 330 kts 116°
2026-05-07 20:06 48.84450 9.29539 8721 ft 323 kts 116°
2026-05-07 20:06 48.83498 9.32573 8225 ft 317 kts 116°
2026-05-07 20:06 48.82576 9.35507 7904 ft 305 kts 116°
2026-05-07 20:06 48.81717 9.38381 7667 ft 293 kts 109°
2026-05-07 20:07 48.81391 9.41378 7437 ft 281 kts 88°
2026-05-07 20:07 48.81710 9.44238 7198 ft 271 kts 73°
2026-05-07 20:07 48.82218 9.46932 6958 ft 263 kts 73°
2026-05-07 20:07 48.82531 9.49614 6716 ft 255 kts 93°
2026-05-07 20:08 48.81966 9.52089 6466 ft 246 kts 128°
2026-05-07 20:08 48.80642 9.53627 6092 ft 242 kts 159°
2026-05-07 20:08 48.79050 9.54467 5666 ft 243 kts 165°
2026-05-07 20:08 48.77390 9.54609 5236 ft 242 kts 195°
2026-05-07 20:09 48.75997 9.53340 4951 ft 232 kts 228°
2026-05-07 20:09 48.74984 9.51468 4733 ft 225 kts 233°
2026-05-07 20:09 48.74155 9.49530 4498 ft 217 kts 251°
2026-05-07 20:10 48.73347 9.45331 4003 ft 202 kts 255°
2026-05-07 20:10 48.72962 9.43319 3739 ft 194 kts 255°
2026-05-07 20:10 48.72596 9.41376 3482 ft 192 kts 255°
2026-05-07 20:10 48.72231 9.39432 3219 ft 193 kts 256°
2026-05-07 20:11 48.71866 9.37486 2963 ft 191 kts 255°
2026-05-07 20:11 48.71509 9.35587 2714 ft 180 kts 255°
2026-05-07 20:11 48.71183 9.33857 2473 ft 167 kts 255°
2026-05-07 20:11 48.70875 9.32221 2269 ft 154 kts 255°
2026-05-07 20:12 48.70601 9.30773 2103 ft 134 kts 255°
2026-05-07 20:12 48.70344 9.29402 1897 ft 134 kts 255°
2026-05-07 20:12 48.70094 9.28061 1706 ft 132 kts 256°
2026-05-07 20:12 48.69848 9.26739 1541 ft 131 kts 255°
2026-05-07 20:13 48.69598 9.25414 1368 ft 129 kts 255°
2026-05-07 20:13 48.69354 9.24127 1214 ft 127 kts 255°
2026-05-07 20:13 48.69140 9.22997 1215 ft 86 kts 253°
2026-05-07 20:13 48.69006 9.22288 1225 ft 63 kts 254°
2026-05-07 20:14 48.68941 9.21817 1237 ft 27 kts 271°
2026-05-07 20:14 48.68968 9.21597 1244 ft 13 kts 283°
2026-05-07 20:14 48.68990 9.21462 1249 ft 13 kts 283°
2026-05-07 20:14 48.69013 9.21324 1252 ft 13 kts 284°
2026-05-07 20:15 48.69025 9.21247 1255 ft 0 kts 283°
2026-05-07 20:15 48.69026 9.21246 1255 ft 0 kts 284°
2026-05-07 20:16 48.69027 9.21235 1255 ft 4 kts 284°
2026-05-07 20:16 48.69041 9.21151 1258 ft 10 kts 282°
2026-05-07 20:16 48.69096 9.21079 1260 ft 9 kts 345°
2026-05-07 20:16 48.69131 9.21107 1259 ft 8 kts 74°
2026-05-07 20:17 48.69129 9.21180 1257 ft 3 kts 166°
2026-05-07 20:17 48.69117 9.21182 1257 ft 0 kts 172°